Location: Balsareny
(41.8670°N, 1.8830°E)
Time: 17:33:28
(UTC+02:00)

Tiangong - Pass Details

Date: 23 June 2021
Orbit: 374 x 386 km, 41.5° (Epoch: 25 July)

Event Time Altitude Azimuth Distance (km) Brightness Sun altitude
Exits shadow 04:53:50 23° 240° (WSW) 851 2.2 -12.7°
Maximum altitude 04:55:33 60° 167° (SSE) 439 1.1 -12.5°
Drops below altitude 10° 04:58:39 10° 86° (E) 1,395 4.6 -12.1°
Sets 05:00:50 0° 83° (E) 2,290 5.9 -11.8°
